Weather History for KMQI - July, 2013

Change the Weather History Date:

Thursday, July 4, 2013

  Actual Average (KECG) Record (KECG)
Temperature  
Mean Temperature 80 °F 78 °F  
Max Temperature 83 °F 87 °F 100 °F (1997)
Min Temperature 77 °F 70 °F 54 °F (1938)
Degree Days  
Heating Degree Days 0 0  
Month to date heating degree days 0  
Since 1 June heating degree days 3  
Since 1 July heating degree days 0  
Cooling Degree Days 15 13  
Month to date cooling degree days 52  
Year to date cooling degree days 530  
Since 1 June cooling degree days 366  
Growing Degree Days 30 (Base 50)    
Moisture  
Dew Point 73 °F    
Average Humidity 78    
Maximum Humidity 89    
Minimum Humidity 63    
Precipitation  
Precipitation 0.03 in 0.17 in 1.49 in (1965)
Month to date precipitation 0.66  
Year to date precipitation 22.32  
Snow  
Snow 0.00 in - 0.00 in (2002)
Month to date snowfall  
Since 1 July snowfall  
Snow Depth -    
Sea Level Pressure  
Sea Level Pressure 30.29 in    
Wind  
Wind Speed 12 mph (SSW)    
Max Wind Speed 17 mph    
Max Gust Speed 18 mph    
Visibility 10 miles    
Events Rain    
T = Trace of Precipitation, MM = Missing Value Source: NWS Daily Summary

Daily Weather History Graph

Daily Weather History Graph

Search for Another Location

Airport or City:

Trip Planner

Search our weather history database for the weather conditions in past years. The results will help you decide how hot, cold, wet, or windy it might be!

Date:

Astronomy

Jul. 04, 2013 Rise Set
Actual Time 5:51 AM EDT 8:22 PM EDT
Civil Twilight 5:21 AM EDT 8:52 PM EDT
Nautical Twilight 4:44 AM EDT 9:29 PM EDT
Astronomical Twilight 4:03 AM EDT 10:10 PM EDT
Moon 3:03 AM EDT (7/4) 5:27 PM EDT (7/4)
Length of Visible Light 15h 31m
Length of Day
14h 31m
Waning Crescent, 11% of the Moon is Illuminated
Jul 4
Waning Crescent
Jul 8
New
Jul 15
First Quarter
Jul 22
Full
Jul 29
Last Quarter

Hourly Weather History & Observations

Time (EDT) Temp. Heat Index Dew Point Humidity Pressure Visibility Wind Dir Wind Speed Gust Speed Precip Events Conditions
12:15 AM 79.3 °F - 73.6 °F 82% 30.29 in 10.0 mi SSW 15.0 mph - N/A   Mostly Cloudy
12:35 AM 79.2 °F - 73.4 °F 82% 30.30 in 10.0 mi SSW 17.3 mph - N/A   Mostly Cloudy
12:55 AM 79.0 °F - 73.4 °F 83% 30.30 in 10.0 mi SSW 12.7 mph - N/A   Scattered Clouds
1:15 AM 78.8 °F - 73.4 °F 83% 30.30 in 10.0 mi SW 13.8 mph - N/A   Scattered Clouds
1:35 AM 78.8 °F - 73.6 °F 84% 30.30 in 10.0 mi SW 11.5 mph - N/A   Scattered Clouds
1:55 AM 78.8 °F - 73.4 °F 83% 30.30 in 10.0 mi SW 13.8 mph - N/A   Clear
2:15 AM 78.4 °F - 73.4 °F 84% 30.30 in 10.0 mi SSW 12.7 mph - N/A   Clear
2:35 AM 78.3 °F - 73.6 °F 85% 30.29 in 10.0 mi SSW 13.8 mph - N/A   Clear
2:55 AM 78.3 °F - 73.4 °F 85% 30.28 in 10.0 mi SSW 15.0 mph - N/A   Clear
3:15 AM 78.3 °F - 73.4 °F 85% 30.28 in 10.0 mi SSW 13.8 mph - N/A   Scattered Clouds
3:35 AM 78.3 °F - 73.4 °F 85% 30.27 in 10.0 mi SSW 11.5 mph - N/A   Clear
3:55 AM 78.1 °F - 73.0 °F 84% 30.27 in 10.0 mi SW 11.5 mph - N/A   Clear
4:15 AM 78.1 °F - 73.2 °F 85% 30.27 in 10.0 mi SW 10.4 mph - N/A   Clear
4:35 AM 77.5 °F - 72.9 °F 85% 30.27 in 10.0 mi SSW 10.4 mph - N/A   Clear
4:55 AM 77.4 °F - 72.9 °F 86% 30.27 in 10.0 mi SSW 10.4 mph - N/A   Clear
5:15 AM 77.5 °F - 72.7 °F 85% 30.29 in 10.0 mi SW 9.2 mph - N/A   Clear
5:35 AM 77.9 °F - 73.0 °F 85% 30.29 in 10.0 mi SW 9.2 mph - N/A   Scattered Clouds
5:55 AM 77.4 °F - 73.4 °F 88% 30.29 in 10.0 mi WSW 6.9 mph - N/A   Scattered Clouds
6:15 AM 77.4 °F - 73.4 °F 88% 30.29 in 10.0 mi SW 6.9 mph - N/A   Clear
6:35 AM 77.5 °F - 73.2 °F 86% 30.30 in 10.0 mi SW 9.2 mph - N/A   Clear
6:55 AM 77.5 °F - 73.4 °F 87% 30.30 in 10.0 mi SSW 8.1 mph - N/A   Clear
7:15 AM 78.1 °F - 73.8 °F 86% 30.30 in 10.0 mi SSW 5.8 mph - N/A   Scattered Clouds
7:35 AM 79.9 °F - 73.9 °F 82% 30.31 in 10.0 mi SSW 10.4 mph - N/A   Mostly Cloudy
7:55 AM 78.6 °F - 74.1 °F 86% 30.32 in 5.0 mi SW 8.1 mph - 0.03 in Rain Rain
8:15 AM 77.5 °F - 73.9 °F 89% 30.32 in 10.0 mi SW 9.2 mph - N/A   Overcast
8:35 AM 78.4 °F - 74.1 °F 87% 30.32 in 10.0 mi SW 11.5 mph - N/A   Scattered Clouds
8:55 AM 79.7 °F - 74.5 °F 84% 30.32 in 10.0 mi SW 8.1 mph - N/A   Scattered Clouds
9:15 AM 80.2 °F 84.9 °F 73.8 °F 81% 30.32 in 10.0 mi SW 6.9 mph - N/A   Mostly Cloudy
9:35 AM 80.8 °F 85.8 °F 73.6 °F 79% 30.32 in 10.0 mi South 10.4 mph - N/A   Mostly Cloudy
9:55 AM 81.0 °F 85.8 °F 73.0 °F 77% 30.32 in 10.0 mi SSW 9.2 mph - N/A   Scattered Clouds
10:15 AM 81.1 °F 86.2 °F 73.4 °F 77% 30.32 in 10.0 mi SSW 10.4 mph - N/A   Clear
10:35 AM 81.9 °F 87.3 °F 73.4 °F 75% 30.32 in 10.0 mi SSW 9.2 mph - N/A   Clear
10:55 AM 81.7 °F 86.9 °F 73.0 °F 75% 30.32 in 10.0 mi South 9.2 mph - N/A   Clear
11:15 AM 82.4 °F 87.4 °F 72.1 °F 71% 30.32 in 10.0 mi South 9.2 mph - N/A   Clear
11:35 AM 82.4 °F 87.2 °F 71.8 °F 70% 30.31 in 10.0 mi South 10.4 mph - N/A   Clear
11:55 AM 82.4 °F 86.5 °F 70.3 °F 67% 30.32 in 10.0 mi South 11.5 mph - N/A   Clear
12:15 PM 82.4 °F 86.5 °F 70.3 °F 67% 30.31 in 10.0 mi South 11.5 mph 17.3 mph N/A   Clear
12:35 PM 82.9 °F 86.5 °F 69.3 °F 63% 30.31 in 10.0 mi South 12.7 mph - N/A   Clear
12:55 PM 82.9 °F 87.5 °F 71.1 °F 67% 30.31 in 10.0 mi South 12.7 mph 16.1 mph N/A   Clear
1:15 PM 82.9 °F 87.7 °F 71.2 °F 68% 30.31 in 10.0 mi South 15.0 mph - N/A   Clear
1:35 PM 82.6 °F 87.6 °F 72.0 °F 70% 30.31 in 10.0 mi SSW 13.8 mph - N/A   Clear
1:55 PM 83.3 °F 89.3 °F 72.9 °F 71% 30.30 in 10.0 mi SSW 12.7 mph - N/A   Clear
2:15 PM 83.3 °F 89.3 °F 72.9 °F 71% 30.30 in 10.0 mi SSW 11.5 mph - N/A   Clear
2:35 PM 83.3 °F 89.3 °F 72.9 °F 71% 30.30 in 10.0 mi SSW 11.5 mph - N/A   Clear
2:55 PM 83.5 °F 89.7 °F 73.2 °F 71% 30.29 in 10.0 mi SSW 13.8 mph 17.3 mph N/A   Clear
3:15 PM 83.3 °F 89.3 °F 73.2 °F 71% 30.28 in 10.0 mi SSW 12.7 mph - N/A   Clear
3:35 PM 83.5 °F 90.0 °F 73.4 °F 72% 30.28 in 10.0 mi South 11.5 mph 17.3 mph N/A   Clear
3:55 PM 83.1 °F 88.9 °F 72.7 °F 71% 30.27 in 10.0 mi South 12.7 mph - N/A   Clear
4:15 PM 83.7 °F 89.4 °F 72.5 °F 69% 30.27 in 10.0 mi South 11.5 mph 17.3 mph N/A   Clear
4:35 PM 83.3 °F 87.9 °F 71.1 °F 66% 30.27 in 10.0 mi South 12.7 mph - N/A   Clear
4:55 PM 83.1 °F 87.6 °F 70.7 °F 66% 30.26 in 10.0 mi South 10.4 mph - N/A   Clear
5:15 PM 83.3 °F 88.2 °F 71.2 °F 67% 30.26 in 10.0 mi South 11.5 mph - N/A   Clear
5:35 PM 82.8 °F 87.9 °F 72.0 °F 70% 30.26 in 10.0 mi South 10.4 mph - N/A   Clear
5:55 PM 82.4 °F 86.7 °F 71.1 °F 68% 30.25 in 10.0 mi South 13.8 mph 18.4 mph N/A   Clear
6:15 PM 81.9 °F 86.2 °F 71.2 °F 70% 30.26 in 10.0 mi South 10.4 mph - N/A   Clear
6:35 PM 81.9 °F 86.4 °F 71.8 °F 71% 30.27 in 10.0 mi SSW 12.7 mph - N/A   Clear
6:55 PM 81.5 °F 85.9 °F 71.8 °F 72% 30.27 in 10.0 mi South 12.7 mph - N/A   Clear
7:15 PM 81.0 °F 85.1 °F 71.6 °F 73% 30.27 in 10.0 mi South 12.7 mph - N/A   Scattered Clouds
7:35 PM 80.6 °F 84.7 °F 72.0 °F 75% 30.27 in 10.0 mi South 9.2 mph - N/A   Clear
7:55 PM 79.9 °F - 71.6 °F 76% 30.26 in 10.0 mi SSW 11.5 mph 17.3 mph N/A   Scattered Clouds
8:15 PM 79.9 °F - 71.6 °F 76% 30.26 in 10.0 mi SSW 12.7 mph 18.4 mph N/A   Scattered Clouds
8:35 PM 79.7 °F - 70.7 °F 74% 30.27 in 10.0 mi South 11.5 mph - N/A   Clear
8:55 PM 79.3 °F - 70.5 °F 74% 30.27 in 10.0 mi South 11.5 mph - N/A   Clear
9:15 PM 79.5 °F - 70.7 °F 74% 30.27 in 10.0 mi SSW 12.7 mph - N/A   Clear
9:35 PM 79.7 °F - 71.8 °F 77% 30.28 in 10.0 mi SSW 11.5 mph - N/A   Clear
9:55 PM 79.7 °F - 72.3 °F 78% 30.29 in 10.0 mi SSW 11.5 mph - N/A   Scattered Clouds
10:15 PM 79.9 °F - 72.3 °F 78% 30.29 in 10.0 mi SSW 12.7 mph - N/A   Scattered Clouds
10:35 PM 80.1 °F 84.1 °F 72.7 °F 78% 30.28 in 10.0 mi SSW 13.8 mph - N/A   Mostly Cloudy
10:55 PM 79.3 °F - 73.2 °F 81% 30.29 in 10.0 mi SW 10.4 mph - N/A   Overcast
11:15 PM 79.2 °F - 73.6 °F 83% 30.29 in 10.0 mi SW 11.5 mph - N/A   Scattered Clouds
11:35 PM 79.0 °F - 73.6 °F 83% 30.29 in 10.0 mi SW 12.7 mph - N/A   Clear
11:55 PM 79.0 °F - 73.6 °F 83% 30.29 in 10.0 mi SW 12.7 mph - N/A   Clear